This demonstration page uses our WeatherBlox Daily Observations layout. Learn more.

Left ArrowRight Arrow

40.92945, -100.16068

Hourly Observations for April 16, 2015

Temp ( °F °C ) Dew Point ( °F °C ) Humidity (%) Winds ( mph kmh ) Pressure ( in mb ) Visibility ( mi km ) Precip ( " mm )
12:15 am 00:15 Partly Cloudy with Nearby Thunderstorms 56 13.5 49 9.2 75 75 SSE 7 11 29.94 1014 10 16 N/A
12:35 am 00:35 Mostly Cloudy 56 13.5 49 9.5 77 77 SSW 3 6 29.97 1015 10 16 N/A
12:55 am 00:55 Cloudy 55 12.6 50 10.2 85 85 ESE 7 11 30.00 1016 7 11 0.02 0.51
1:15 am 01:15 Windy with Storms Likely 54 12.3 51 10.3 88 88 E 20 31 29.94 1014 7 11 0.03 0.76
1:35 am 01:35 Cloudy with Thunderstorms 54 12.1 51 10.5 90 90 ESE 15 24 29.97 1015 10 16 0.04 1.02
1:55 am 01:55 Cloudy with Thunderstorms 54 12 51 10.5 91 91 ESE 17 28 29.97 1015 7 11 0.07 1.78
2:15 am 02:15 Cloudy with Thunderstorms 54 12 51 10.7 92 92 ESE 15 24 29.97 1015 7 11 0.03 0.76
2:35 am 02:35 Cloudy with Nearby Thunderstorms 53 11.7 51 10.6 93 93 SE 13 20 29.97 1015 5 8 0.06 1.52
2:55 am 02:55 Cloudy with Nearby Thunderstorms 53 11.8 51 10.8 94 94 ESE 13 20 29.94 1014 4 6 0.10 2.54
3:15 am 03:15 Cloudy with Thunderstorms 54 12 52 11 94 94 ESE 17 28 29.94 1014 3 5 0.07 1.78
3:35 am 03:35 Cloudy with Rain 53 11.9 52 11 94 94 ESE 18 30 29.94 1014 4 6 0.15 3.81
3:55 am 03:55 Cloudy with Nearby Thunderstorms 53 11.8 52 11 95 95 ESE 15 24 29.97 1015 4 6 0.20 5.08
4:15 am 04:15 Cloudy with Rain 53 11.5 51 10.8 96 96 SE 12 19 29.97 1015 4 6 0.03 0.76
4:35 am 04:35 Cloudy with Rain 52 11.3 51 10.7 96 96 SE 9 15 30.00 1016 4 6 0.11 2.79
4:55 am 04:55 Cloudy with Heavy Rain 56 13.2 55 12.7 97 97 E 8 13 29.94 1014 4 6 0.25 6.35
5:15 am 05:15 Cloudy with Light Rain 57 14.1 56 13.6 97 97 ESE 12 19 29.94 1014 7 11 0.02 0.51
5:35 am 05:35 Cloudy with Light Rain 57 14 56 13.5 97 97 ESE 14 22 29.91 1013 10 16 0.04 1.02
5:55 am 05:55 Cloudy 58 14.2 57 13.7 97 97 ESE 13 20 29.91 1013 10 16 0.04 1.02
6:15 am 06:15 Cloudy 58 14.6 57 14 96 96 SE 13 20 29.91 1013 10 16 N/A
6:35 am 06:35 Cloudy 58 14.5 57 14 97 97 SE 18 30 29.91 1013 10 16 N/A
6:55 am 06:55 Cloudy 58 14.5 57 13.9 96 96 SE 15 24 29.94 1014 7 11 N/A
7:15 am 07:15 Cloudy with Mist and Fog 58 14.3 57 13.7 96 96 SE 13 20 29.94 1014 5 8 N/A
7:35 am 07:35 Cloudy with Mist and Fog 57 14 56 13.3 96 96 SE 17 28 29.94 1014 5 8 N/A
7:55 am 07:55 Mostly Cloudy with Mist and Fog 56 13.6 55 13 96 96 E 10 17 29.97 1015 4 6 N/A
8:15 am 08:15 Cloudy with Mist and Fog 56 13.5 55 12.7 95 95 E 8 13 29.97 1015 4 6 N/A
8:35 am 08:35 Cloudy with Mist and Fog 56 13.3 55 12.5 95 95 ESE 9 15 30.03 1017 4 6 N/A
8:55 am 08:55 Cloudy with Mist and Fog 56 13.3 55 12.5 95 95 E 8 13 30.03 1017 4 6 N/A
9:15 am 09:15 Cloudy with Mist and Fog 56 13.5 55 12.6 94 94 ENE 6 9 30.00 1016 3 5 N/A
9:35 am 09:35 Cloudy with Light Rain 56 13.5 55 12.7 95 95 E 3 6 30.00 1016 3 5 N/A
9:55 am 09:55 Cloudy with Mist and Fog 56 13.6 55 12.8 95 95 E 7 11 30.00 1016 4 6 N/A
10:15 am 10:15 Cloudy with Mist and Fog 56 13.5 55 12.6 94 94 E 7 11 30.00 1016 3 4 N/A
10:35 am 10:35 Cloudy with Mist and Fog 56 13.3 55 12.5 95 95 ENE 8 13 30.03 1017 1 2 N/A
10:55 am 10:55 Cloudy with Mist and Fog 56 13.5 55 12.8 96 96 ENE 7 11 30.00 1016 2 2 N/A
11:15 am 11:15 Cloudy with Mist and Fog 56 13.5 55 12.8 96 96 NNE 6 9 30.00 1016 3 4 N/A
11:35 am 11:35 Cloudy with Mist and Fog 56 13.5 55 12.7 95 95 NNE 10 17 30.00 1016 3 5 N/A
11:55 am 11:55 Cloudy with Mist and Fog 56 13.5 55 12.5 94 94 NNE 10 17 30.00 1016 4 6 N/A
12:15 pm 12:15 Cloudy with Mist and Fog 56 13.6 55 12.6 94 94 NE 10 17 30.00 1016 5 8 N/A
12:35 pm 12:35 Cloudy with Mist and Fog 56 13.5 55 12.5 94 94 NE 10 17 30.00 1016 5 8 N/A
12:55 pm 12:55 Cloudy with Mist and Fog 56 13.4 54 12.4 94 94 ENE 12 19 30.03 1017 2 2 N/A
1:15 pm 13:15 Cloudy with Mist and Fog 56 13.5 55 12.6 94 94 ENE 12 19 30.00 1016 3 5 N/A
1:35 pm 13:35 Cloudy with Mist and Fog 56 13.5 55 12.6 94 94 ENE 10 17 30.00 1016 3 5 N/A
1:55 pm 13:55 Cloudy with Mist and Fog 56 13.5 55 12.6 94 94 ENE 10 17 30.00 1016 4 6 N/A
2:15 pm 14:15 Cloudy with Mist and Fog 56 13.5 55 12.6 94 94 ENE 10 17 30.00 1016 3 5 N/A
2:35 pm 14:35 Cloudy with Mist and Fog 57 14 56 13.1 94 94 ENE 13 20 30.00 1016 3 5 N/A
2:55 pm 14:55 Cloudy with Mist and Fog 57 14.1 55 13 93 93 ENE 9 15 30.00 1016 4 6 N/A
3:15 pm 15:15 Cloudy with Mist and Fog 58 14.2 55 13 93 93 NE 12 19 30.00 1016 5 8 N/A
3:35 pm 15:35 Cloudy with Mist and Fog 58 14.2 55 12.8 91 91 ENE 12 19 30.00 1016 5 8 N/A
3:55 pm 15:55 Cloudy 58 14.3 55 12.8 91 91 ENE 9 15 30.00 1016 7 11 N/A
4:15 pm 16:15 Cloudy 58 14.3 55 12.6 90 90 NE 8 13 30.00 1016 7 11 N/A
4:35 pm 16:35 Cloudy 58 14.5 55 12.8 90 90 NE 9 15 30.00 1016 7 11 N/A
4:55 pm 16:55 Cloudy with Mist and Fog 58 14.7 55 12.8 88 88 NE 9 15 30.00 1016 5 8 N/A
5:15 pm 17:15 Cloudy with Mist and Fog 58 14.6 55 12.9 90 90 NE 7 11 30.00 1016 5 8 N/A
5:35 pm 17:35 Cloudy with Mist and Fog 58 14.5 55 12.7 89 89 NE 10 17 30.00 1016 5 8 N/A
5:55 pm 17:55 Cloudy with Light Rain 58 14.3 55 12.7 90 90 NNE 6 9 30.00 1016 5 8 N/A
6:15 pm 18:15 Cloudy with Rain 57 14.1 55 12.7 91 91 ENE 5 7 30.00 1016 4 6 0.01 0.25
6:35 pm 18:35 Cloudy with Rain 57 14 55 12.8 93 93 E 10 17 30.00 1016 3 5 0.03 0.76
6:55 pm 18:55 Cloudy with Rain 57 14 55 12.8 93 93 E 9 15 30.00 1016 4 6 0.05 1.27
7:15 pm 19:15 Partly Cloudy with Mist and Fog 57 14.1 55 12.7 91 91 NNE 5 7 30.00 1016 4 6 0.01 0.25
7:35 pm 19:35 Mostly Cloudy with Mist and Fog 57 13.8 55 12.6 93 93 NE 7 11 30.00 1016 3 5 0.01 0.25
7:55 pm 19:55 Cloudy with Mist and Fog 58 14.3 56 13.1 93 93 NE 9 15 30.00 1016 4 6 0.01 0.25
8:15 pm 20:15 Cloudy with Mist and Fog 57 14.1 55 13 93 93 NNE 7 11 30.00 1016 4 6 N/A
8:35 pm 20:35 Mostly Cloudy with Mist and Fog 57 13.9 55 12.9 94 94 NE 8 13 30.00 1016 5 8 N/A
8:55 pm 20:55 Partly Cloudy 57 13.7 52 11.3 86 86 E 9 15 30.00 1016 10 16 N/A
9:15 pm 21:15 Partly Cloudy 55 12.8 52 10.9 88 88 ENE 8 13 30.03 1017 10 16 N/A
9:35 pm 21:35 Cloudy 55 13 53 11.4 90 90 ENE 8 13 30.03 1017 10 16 N/A
9:55 pm 21:55 Mostly Cloudy 55 12.8 53 11.4 91 91 NE 9 15 30.03 1017 10 16 N/A
10:15 pm 22:15 Mostly Cloudy 55 12.8 53 11.5 92 92 N N/A 30.03 1017 10 16 N/A
10:35 pm 22:35 Cloudy 54 12.1 52 11 93 93 N N/A 30.06 1018 10 16 N/A
10:55 pm 22:55 Mostly Cloudy 55 13 53 11.5 91 91 ENE 5 7 30.06 1018 10 16 N/A
11:15 pm 23:15 Clear 55 12.7 52 11.2 91 91 NE 7 11 30.03 1017 10 16 N/A
11:35 pm 23:35 Clear 54 12.1 52 10.9 92 92 NNE 9 15 30.03 1017 10 16 N/A
11:55 pm 23:55 Clear 55 12.5 53 11.4 93 93 NE 9 15 30.03 1017 10 16 N/A

Powered by AerisWeather